Hourly Data Report for October 01, 2019

TORONTO CITY
ONTARIO
Current Station Operator: ECCC - MSC

43°40'00.000" N
79°24'00.000" W
112.50 m
6158355
71508
XTO

Download Data

Hourly Data (October 2019)
Hourly Data Report for October 1, 2019
TIME
LST
Temp Definition
°C
Dew Point Definition
°C
Rel Hum Definition
%
Precip. Amount Definition
mm

Wind Dir Definition
10's deg

Wind Spd Definition
km/h
Visibility Definition
km
Stn Press Definition
kPa
Hmdx Definition


Wind Chill Definition


Weather Definition


00:00 16.3 13.8 85 0.0       100.23     LegendNANA
01:00 15.7 13.6 87 0.0       100.20     LegendNANA
02:00 15.4 13.6 89 0.0       100.13     LegendNANA
03:00 15.8 14.0 89 0.0       100.08     LegendNANA
04:00 15.9 14.1 89 0.0       100.03     LegendNANA
05:00 16.2 13.6 85 0.0       99.96     LegendNANA
06:00 16.5 14.5 88 0.0       99.97     LegendNANA
07:00 17.1 15.4 90 0.0       99.98     LegendNANA
08:00 19.5 17.8 90 0.0       99.97     LegendNANA
09:00 22.5 18.4 78 0.0       99.96 29   LegendNANA
10:00 23.9 18.3 71 0.0       99.91 30   LegendNANA
11:00 25.8 18.4 64 0.0       99.83 32   LegendNANA
12:00 28.0 17.9 54 0.0       99.79 34   LegendNANA
13:00 29.1 18.2 52 0.0       99.75 35   LegendNANA
14:00 27.7 17.7 55 0.0       99.69 33   LegendNANA
15:00 28.5 18.3 54 0.0       99.69 35   LegendNANA
16:00 21.9 19.0 84 8.5       99.76 29   LegendNANA
17:00 21.4 19.3 88 0.3       99.78 28   LegendNANA
18:00 21.9 19.9 88 0.0       99.82 29   LegendNANA
19:00 21.6 19.5 88 0.2       99.84 29   LegendNANA
20:00 21.8 19.6 87 0.0       99.85 29   LegendNANA
21:00 21.4 18.7 84 0.0       99.78 28   LegendNANA
22:00 21.1 18.5 85 0.0       99.79 27   LegendNANA
23:00 19.7 17.7 88 0.0       99.75     LegendNANA

Notes on Data Quality.

Legend

  • E = Estimated
  • M = Missing
  • NA = Not Available*
  • [empty] = Indicates an unobserved value
Date modified: